COSMOS 718

Satellite information

Favourite Embed

Satellite Type and Status

PAYLOADIN ORBIT

Key statistics

Satellite COSMOS 718 at a glance.

Uptime

18393

Days in orbit

Revolutions

≈ 12.5

Per day

Orbit

LEO

Low Earth Orbit

Inclination

74.0

Latest

Satellite identification and parameters

Extended collection of information and parameters for COSMOS 718.

Object identification

Identified? True

Debris? False

Object name: COSMOS 718

International designator: 1975-016H

Object number (NORAD): 7685

Object ID (CCSDS): 7685

Country: COMMONWEALTH OF INDEPENDENT STATES (CIS)

Current information (Y/N): Y

RCS size: MEDIUM

Orbital parameters

Period: 115.072 minutes

Inclination: 74.0058 deg

SMA: 7836.832 km

Apoapsis: 1488.986 km

Periapsis: 1428.408 km

RAAN: 318.8203 deg

Eccentricy: 0.0038649

Argument of periapsis: 184.8001 deg

Mean anomaly: 332.6774 deg

Mean motion: 12.51387909 rev/day

Mean motion (dot): -0.00000025 rev/day2

B* drag term: -0.000055426 1/REarth

Two-line elements (TLE)

Creation date: July 8, 2025, 2:27 a.m.

Reference frame: TEME

Reference center: EARTH

Epoch: July 7, 2025, 8:19 p.m. UTC

TLE line 0: 0 COSMOS 718

TLE line 1: 1 07685U 75016H 25188.84675898 -.00000025 00000-0 -55426-4 0 9999

TLE line 2: 2 07685 74.0058 318.8203 0038649 184.8001 332.6774 12.51387909300313

Live tracking on map

Real-time ground track for satellite COSMOS 718.

In-orbit conjunctions

A list of the most updated potential collisions computed for object COSMOS 718.

Target Orbit TCA Probability of collision Miss distance Type
ATLAS H R/B LEO 2025-04-19 01:54:17 0.0001066698 156.0 (m) ROCKET BODY
DELTA 1 DEB SSO 2024-09-01 20:51:44 0.001570094 60.0 (m) DEBRIS

Associated space launch

Military communications satellites

COSMOS 718 was lifted into orbit during the mission ‘Kosmos-3M | Strela-1M 81-88’, on board a Kosmos-3M space rocket.

The launch took place on Feb. 28, 1975, 2:01 p.m. from 132/2.

For more information about the launch, click the button.

Launch to space Kosmos-3M | Strela-1M 81-88
Kosmos-3M | Strela-1M 81-88

Agency: N/A

Status: Launch Successful

Launch date: Feb. 28, 1975, 2:01 p.m. UTC

Rocket: Kosmos-3M

Launch pad: 132/2

Location: Plesetsk Cosmodrome, Russian Federation

...

Latest news about this satellite

There are no fresh news available about this satellite. Check back as we update our databases every day.


Newsletter sign-up

Weekly statistics, charts and insights to help you stay on top of the space industry.